Location: ???? ?????????
(44.3677°N, 135.2344°E)
Time: 04:48:17
(UTC+00:00)

Cosmos 2346 Rocket - Pass Details

Date: 19 May 2025
Orbit: 935 x 979 km, 82.9° (Epoch: 19 June)

Event Time Altitude Azimuth Distance (km) Brightness Sun altitude
Exits shadow 16:55:18 35° 201° (SSW) 1,514 5.0 -20.1°
Maximum altitude 16:58:05 75° 279° (W) 1,014 4.5 -19.9°
Drops below altitude 10° 17:04:23 10° 5° (N) 2,741 7.8 -19.3°
Sets 17:06:55 0° 7° (N) 3,693 8.7 -19.0°
